User: anonymous
Location: PFO Observatory
(45.2937°N, 66.0991°W)
Time: 19:06:56
(UTC-03:00)
Language:

Cosmos 1151 Rocket - Orbit

View from above orbital plane
View from above orbital plane
View from above satellite
View from above satellite

Ground track
Ground track

The orbit data is extracted from the following two-line orbital elements,

1 11672U 80005B   14241.28842312  .00000332  00000-0  34055-4 0   992
2 11672 082.5179 324.5188 0018570 111.6685 304.5652 14.87220187871327
Epoch (UTC): 29 August 2014 06:55:19
Eccentricity: 0.0018570
inclination: 82.5179°
perigee height: 593 km
apogee height: 619 km
right ascension of ascending node: 324.5188°
argument of perigee: 111.6685°
revolutions per day: 14.87220187
mean anomaly at epoch: 304.5652°
orbit number at epoch: 87132

The dashed part of the orbit path shows where the satellite is in the earth's shadow,  

DLR